Satellite: AUBIESAT Catalog number: 37854 Epoch time: 13288.74407307 Element set: 607 Inclination: 101.7020 deg RA of node: 199.3813 deg Eccentricity: 0.0231894 Arg of perigee: 039.8101 deg Mean anomaly: 023.7504 deg Mean motion: 14.85352593 rev/day Decay rate: 1.2510e-04 rev/day^2 Epoch rev: 10635 Checksum: 285
Satellite: HRBE Catalog number: 37855 Epoch time: 13289.71884661 Element set: 615 Inclination: 101.7020 deg RA of node: 200.4741 deg Eccentricity: 0.0233109 Arg of perigee: 037.6985 deg Mean anomaly: 014.8788 deg Mean motion: 14.84985630 rev/day Decay rate: 1.2250e-04 rev/day^2 Epoch rev: 10648 Checksum: 309
Satellite: RS-39 Catalog number: 38051 Epoch time: 13290.32283444 Element set: 883 Inclination: 051.6361 deg RA of node: 339.6198 deg Eccentricity: 0.0010975 Arg of perigee: 351.9360 deg Mean anomaly: 101.3592 deg Mean motion: 15.36073445 rev/day Decay rate: 2.2999e-04 rev/day^2 Epoch rev: 9653 Checksum: 324
Satellite: E-STAR Catalog number: 38079 Epoch time: 13289.94727742 Element set: 530 Inclination: 069.4705 deg RA of node: 247.9204 deg Eccentricity: 0.0563546 Arg of perigee: 334.2519 deg Mean anomaly: 075.7377 deg Mean motion: 14.59493809 rev/day Decay rate: 1.13140e-03 rev/day^2 Epoch rev: 8742 Checksum: 341
Satellite: GOLIAT Catalog number: 38085 Epoch time: 13290.28206166 Element set: 467 Inclination: 069.4730 deg RA of node: 250.3618 deg Eccentricity: 0.0575173 Arg of perigee: 335.4021 deg Mean anomaly: 022.0659 deg Mean motion: 14.56820143 rev/day Decay rate: 1.06349e-03 rev/day^2 Epoch rev: 8738 Checksum: 300
Satellite: HORYU-2 Catalog number: 38340 Epoch time: 13289.78682821 Element set: 638 Inclination: 098.2296 deg RA of node: 238.5927 deg Eccentricity: 0.0011843 Arg of perigee: 223.8290 deg Mean anomaly: 136.1982 deg Mean motion: 14.71239526 rev/day Decay rate: 2.131e-05 rev/day^2 Epoch rev: 7599 Checksum: 333
Satellite: RS-40 Catalog number: 38736 Epoch time: 13289.94694031 Element set: 399 Inclination: 082.4746 deg RA of node: 079.2027 deg Eccentricity: 0.0022168 Arg of perigee: 061.5867 deg Mean anomaly: 298.7454 deg Mean motion: 12.42871767 rev/day Decay rate: 1.0e-07 rev/day^2 Epoch rev: 5537 Checksum: 337
Satellite: PROITERES Catalog number: 38756 Epoch time: 13290.28014699 Element set: 212 Inclination: 098.2455 deg RA of node: 009.5189 deg Eccentricity: 0.0013969 Arg of perigee: 078.5625 deg Mean anomaly: 281.7159 deg Mean motion: 14.74369515 rev/day Decay rate: 8.20e-06 rev/day^2 Epoch rev: 5938 Checksum: 336
Satellite: RAIKO Catalog number: 38852 Epoch time: 13218.07382584 Element set: 340 Inclination: 051.6160 deg RA of node: 184.0336 deg Eccentricity: 0.0004489 Arg of perigee: 261.9162 deg Mean anomaly: 100.6538 deg Mean motion: 16.48474690 rev/day Decay rate: 2.4681979e-01 rev/day^2 Epoch rev: 4784 Checksum: 326
Satellite: FITSAT 1 Catalog number: 38853 Epoch time: 13184.86912902 Element set: 315 Inclination: 051.6252 deg RA of node: 351.6077 deg Eccentricity: 0.0011722 Arg of perigee: 245.9321 deg Mean anomaly: 114.2104 deg Mean motion: 16.39337660 rev/day Decay rate: 6.638326e-02 rev/day^2 Epoch rev: 4270 Checksum: 289
Satellite: TechEdSat Catalog number: 38854 Epoch time: 13124.93253577 Element set: 290 Inclination: 051.6449 deg RA of node: 297.0261 deg Eccentricity: 0.0010505 Arg of perigee: 310.8629 deg Mean anomaly: 049.0629 deg Mean motion: 16.38844728 rev/day Decay rate: 1.1592855e-01 rev/day^2 Epoch rev: 3329 Checksum: 325
Satellite: F 1 Catalog number: 38855 Epoch time: 13129.77714356 Element set: 287 Inclination: 051.5085 deg RA of node: 272.4145 deg Eccentricity: 0.0008326 Arg of perigee: 194.2908 deg Mean anomaly: 166.5495 deg Mean motion: 16.49710473 rev/day Decay rate: 2.7424026e-01 rev/day^2 Epoch rev: 3394 Checksum: 332
Satellite: WeWish Catalog number: 38856 Epoch time: 13069.98095549 Element set: 248 Inclination: 051.6166 deg RA of node: 215.0521 deg Eccentricity: 0.0008325 Arg of perigee: 316.0438 deg Mean anomaly: 044.8765 deg Mean motion: 16.41348316 rev/day Decay rate: 1.6701328e-01 rev/day^2 Epoch rev: 2458 Checksum: 318
Satellite: OSSI-1 Catalog number: 39131 Epoch time: 13188.41684431 Element set: 8 Inclination: 064.8841 deg RA of node: 114.8425 deg Eccentricity: 0.0051126 Arg of perigee: 026.6892 deg Mean anomaly: 350.0589 deg Mean motion: 16.22925119 rev/day Decay rate: 1.502874e-02 rev/day^2 Epoch rev: 1237 Checksum: 296
Satellite: BEESAT-3 Catalog number: 39134 Epoch time: 13289.16059864 Element set: 396 Inclination: 064.8784 deg RA of node: 188.4175 deg Eccentricity: 0.0002530 Arg of perigee: 296.3598 deg Mean anomaly: 063.7258 deg Mean motion: 15.01196925 rev/day Decay rate: 5.581e-05 rev/day^2 Epoch rev: 2698 Checksum: 349
Satellite: BEESAT-2 Catalog number: 39136 Epoch time: 13289.16627673 Element set: 386 Inclination: 064.8790 deg RA of node: 188.4424 deg Eccentricity: 0.0002549 Arg of perigee: 298.4564 deg Mean anomaly: 061.6303 deg Mean motion: 15.01077281 rev/day Decay rate: 5.117e-05 rev/day^2 Epoch rev: 2698 Checksum: 324
/EX